Regional Weather Roundup
Issued by NWS Nashville, TN

Home | Current Version | Previous Version | Text Only | Print | Product List | Glossary On
Versions: 1 2 3 4 5 6 7 8 9 10 11 12 13 14 15 16 17 18 19 20 21 22 23 24 25 26 27 28 29 30 31 32 33 34 35 36 37 38 39 40 41 42 43 44 45 46 47 48 49 50
000
ASUS44 KOHX 221910
RWROHX
MIDDLE TENNESSEE HOURLY WEATHER ROUNDUP
NATIONAL WEATHER SERVICE NASHVILLE TN
200 PM CDT FRI SEP 22 2017

NOTE: "FAIR" INDICATES FEW OR NO CLOUDS BELOW 12,000 FEET WITH
NO SIGNIFICANT WEATHER AND/OR OBSTRUCTIONS TO VISIBILITY.

* THESE REPORTS ARE NOT UNDER NWS QUALITY CONTROL AND MAY NOT
  REPORT WEATHER SUCH AS PRECIPITATION AND FOG.


TNZ005>011-023>034-057-059-062>066-078-080-222000
...NORTHERN MIDDLE TENNESSEE...

CITY           SKY/WX    TMP DP  RH WIND       PRES   REMARKS
CLARKSVILLE    PTSUNNY   89  65  44 E6        30.04F HX  91
CROSSVILLE     PTSUNNY   84  63  49 NE3       30.11F
GALLATIN       SUNNY     88  64  45 CALM      30.06F
DICKSON        MOSUNNY   85  66  52 CALM      30.05F
LEBANON        MOSUNNY   88  64  44 CALM      30.03F
NASHVILLE      MOSUNNY   88  63  43 S3        30.04F
PORTLAND       SUNNY     86  68  54 NE8       30.04F
SMYRNA         MOSUNNY   86  66  51 NW3       30.05F
SPARTA         SUNNY     86  64  48 CALM      30.05F
SPRINGFIELD    SUNNY     88  64  45 VRB5      30.03F
WEST NASHVILLE SUNNY     88  64  45 SW3       30.02F
$$
TNZ056-058-060-061-075>077-079-093>097-222000
...SOUTHERN MIDDLE TENNESSEE...

CITY           SKY/WX    TMP DP  RH WIND       PRES   REMARKS
COLUMBIA       MOSUNNY   88 N/A N/A VRB5      30.01F
FAYETTEVILLE   SUNNY     86  66  51 CALM      30.04F
MCMINNVILLE    SUNNY     88  70  55 CALM      30.06S HX  92
PULASKI        SUNNY     88  66  48 E3        30.02F HX  90
SHELBYVILLE    SUNNY     86  66  51 NE5       30.04F
TULLAHOMA      MOSUNNY   88  63  42 VRB3      30.07S
WINCHESTER     SUNNY     88  66  48 SW5       30.05S HX  90
$$


...KEY TO REMARKS...
VSB - VISIBILITY IN MILES
WCI - WIND CHILL INDEX
HX  - HEAT INDEX




USA.gov is the U.S. government's official web portal to all federal, state and local government web resources and services.